This is the latest recevied weather packets stored in our database for station/object XQ6AK-15. If no packets are shown the sender has not sent any weather packets the latest 10 day(s).
| Time | Temp. | Humidity | Pressure | Rain* | Wind** | Luminosity | Snow |
|---|---|---|---|---|---|---|---|
| 1787682144 | 10° C | 99% | 998.6 hPa | 3.05 mm | - | 47 W/m² | - |
| 1787681838 | 10° C | 99% | 998.9 hPa | 3.05 mm | - | 31 W/m² | - |
| 1787681533 | 10° C | 99% | 998.8 hPa | 3.05 mm | - | 25 W/m² | - |
| 1787681227 | 10° C | 99% | 998.7 hPa | 6.1 mm | - | 18 W/m² | - |
| 1787680923 | 10° C | 99% | 998.6 hPa | 7.11 mm | - | 12 W/m² | - |
| 1787680617 | 10° C | 99% | 999.3 hPa | 7.11 mm | - | 11 W/m² | - |
| 1787680316 | 10° C | 99% | 999.4 hPa | 4.83 mm | - | 18 W/m² | - |
| 1787680016 | 10° C | 99% | 999.3 hPa | 4.83 mm | - | 22 W/m² | - |
| 1787679715 | 10° C | 99% | 999.5 hPa | 1.27 mm | - | 29 W/m² | - |
| 1787679410 | 10° C | 99% | 999.4 hPa | 1.78 mm | - | 16 W/m² | - |
| 1787679106 | 10° C | 99% | 999.2 hPa | 4.83 mm | - | 12 W/m² | - |
| 1787678806 | 10.56° C | 99% | 999.4 hPa | 6.1 mm | - | 26 W/m² | - |
| 1787678500 | 10.56° C | 99% | 999.8 hPa | 7.11 mm | - | 22 W/m² | - |
| 1787678195 | 10.56° C | 99% | 999.9 hPa | 9.65 mm | - | 12 W/m² | - |
| 1787677890 | 10.56° C | 99% | 999.1 hPa | 10.67 mm | - | 11 W/m² | - |
| 1787677590 | 10.56° C | 99% | 999.7 hPa | 6.1 mm | - | 18 W/m² | - |
| 1787677289 | 10.56° C | 99% | 1000.2 hPa | 4.32 mm | - | 19 W/m² | - |
| 1787676988 | 10.56° C | 99% | 1000.5 hPa | 4.32 mm | - | 30 W/m² | - |
| 1787676684 | 10.56° C | 99% | 1000.8 hPa | 3.05 mm | - | 35 W/m² | - |
| 1787676380 | 10.56° C | 99% | 1000.9 hPa | 3.05 mm | - | 37 W/m² | - |
| 1787676076 | 10.56° C | 99% | 1000.6 hPa | 4.32 mm | - | 36 W/m² | - |
| 1787675772 | 10.56° C | 99% | 1000.6 hPa | 7.87 mm | - | 34 W/m² | - |
| 1787675467 | 10.56° C | 99% | 1000.6 hPa | 7.11 mm | - | 29 W/m² | - |
| 1787675165 | 10.56° C | 99% | 1000.7 hPa | 7.87 mm | - | 31 W/m² | - |
| 1787674860 | 10.56° C | 99% | 1000.7 hPa | 7.87 mm | - | 19 W/m² | - |
* Rain latest hour (hover to see other rain measurements)
** Current wind speed in m/s (hover to see current wind gust speed)